TimeCST,TemperatureF,Dew PointF,Humidity,Sea Level PressureIn,VisibilityMPH,Wind Direction,Wind SpeedMPH,Gust SpeedMPH,PrecipitationIn,Events,Conditions,WindDirDegrees,DateUTC
12:53 AM,36.0,35.1,97,30.26,10.0,SSW,4.6,-,N/A,,Clear,210,2013-01-06 06:53:00
1:43 AM,32.0,32.0,100,30.25,1.8,South,4.6,-,N/A,,Clear,190,2013-01-06 07:43:00
1:50 AM,32.0,32.0,100,30.25,0.5,South,3.5,-,N/A,Fog,Fog,180,2013-01-06 07:50:00
1:53 AM,30.9,30.9,100,30.26,0.5,South,4.6,-,N/A,Fog,Light Freezing Fog,180,2013-01-06 07:53:00
2:01 AM,30.2,30.2,100,30.25,0.2,South,4.6,-,N/A,Fog,Light Freezing Fog,190,2013-01-06 08:01:00
2:17 AM,33.8,33.8,100,30.25,0.8,South,5.8,-,N/A,,Mist,190,2013-01-06 08:17:00
2:20 AM,33.8,33.8,100,30.25,1.2,South,5.8,-,N/A,,Scattered Clouds,190,2013-01-06 08:20:00
2:23 AM,33.8,33.8,100,30.25,3.0,SSW,5.8,-,N/A,,Partly Cloudy,200,2013-01-06 08:23:00
2:53 AM,36.0,36.0,100,30.26,8.0,SSW,5.8,-,N/A,,Clear,210,2013-01-06 08:53:00
3:53 AM,36.0,36.0,100,30.25,6.0,SW,4.6,-,N/A,,Partly Cloudy,230,2013-01-06 09:53:00
4:11 AM,35.6,35.6,100,30.24,5.0,WSW,6.9,-,N/A,,Mostly Cloudy,240,2013-01-06 10:11:00
4:28 AM,35.6,35.6,100,30.24,1.8,WSW,4.6,-,N/A,,Overcast,250,2013-01-06 10:28:00
4:44 AM,35.6,35.6,100,30.24,0.8,West,5.8,-,N/A,,Mist,260,2013-01-06 10:44:00
4:53 AM,36.0,36.0,100,30.25,0.5,Variable,4.6,-,N/A,Fog,Fog,0,2013-01-06 10:53:00
6:03 AM,35.6,35.6,100,30.25,0.5,SW,3.5,-,N/A,Fog,Fog,230,2013-01-06 12:03:00
6:14 AM,35.6,35.6,100,30.25,0.2,Variable,3.5,-,N/A,Fog,Fog,0,2013-01-06 12:14:00
6:34 AM,35.6,35.6,100,30.25,0.5,Calm,Calm,-,N/A,Fog,Fog,0,2013-01-06 12:34:00
6:46 AM,35.6,35.6,100,30.26,0.2,Variable,3.5,-,N/A,Fog,Fog,0,2013-01-06 12:46:00
6:53 AM,35.1,35.1,100,30.27,0.2,Calm,Calm,-,N/A,Fog,Fog,0,2013-01-06 12:53:00
7:10 AM,35.6,35.6,100,30.26,0.5,SW,4.6,-,N/A,Fog,Fog,220,2013-01-06 13:10:00
7:20 AM,35.6,35.6,100,30.26,0.2,SSW,3.5,-,N/A,Fog,Fog,210,2013-01-06 13:20:00
7:53 AM,35.1,35.1,100,30.28,0.2,SW,3.5,-,N/A,Fog,Fog,220,2013-01-06 13:53:00
8:49 AM,35.6,35.6,100,30.28,0.5,SW,4.6,-,N/A,Fog,Fog,220,2013-01-06 14:49:00
8:53 AM,35.1,35.1,100,30.29,0.5,Variable,3.5,-,N/A,Fog,Fog,0,2013-01-06 14:53:00
9:10 AM,35.6,35.6,100,30.29,1.0,SW,4.6,-,N/A,,Overcast,220,2013-01-06 15:10:00
9:32 AM,37.4,37.4,100,30.30,2.0,West,4.6,-,N/A,,Overcast,260,2013-01-06 15:32:00
10:08 AM,37.4,37.4,100,30.31,6.0,West,5.8,-,N/A,,Overcast,270,2013-01-06 16:08:00
10:34 AM,39.2,37.4,93,30.31,9.0,WNW,4.6,-,N/A,,Scattered Clouds,290,2013-01-06 16:34:00
10:41 AM,39.2,37.4,93,30.31,9.0,WNW,4.6,-,N/A,,Mostly Cloudy,290,2013-01-06 16:41:00
10:53 AM,41.0,37.9,89,30.32,9.0,Variable,4.6,-,N/A,,Scattered Clouds,0,2013-01-06 16:53:00
11:53 AM,46.0,37.9,73,30.28,10.0,Variable,5.8,-,N/A,,Clear,0,2013-01-06 17:53:00
12:53 PM,48.0,34.0,58,30.26,10.0,West,6.9,-,N/A,,Clear,270,2013-01-06 18:53:00
1:53 PM,48.9,35.1,59,30.26,10.0,NW,8.1,-,N/A,,Clear,310,2013-01-06 19:53:00
2:53 PM,48.0,34.0,58,30.28,10.0,NW,11.5,17.3,N/A,,Clear,320,2013-01-06 20:53:00
3:53 PM,48.0,32.0,54,30.30,10.0,North,6.9,-,N/A,,Clear,350,2013-01-06 21:53:00
4:53 PM,44.1,32.0,63,30.33,10.0,North,6.9,-,N/A,,Clear,360,2013-01-06 22:53:00
5:53 PM,39.0,30.9,73,30.34,10.0,North,6.9,-,N/A,,Clear,10,2013-01-06 23:53:00
6:53 PM,36.0,30.0,79,30.36,10.0,NNE,4.6,-,N/A,,Clear,30,2013-01-07 00:53:00
7:53 PM,36.0,30.0,79,30.38,10.0,NNE,3.5,-,N/A,,Clear,30,2013-01-07 01:53:00
8:53 PM,35.1,30.0,82,30.38,10.0,NE,3.5,-,N/A,,Clear,50,2013-01-07 02:53:00
9:53 PM,33.1,28.9,85,30.39,10.0,ENE,3.5,-,N/A,,Clear,60,2013-01-07 03:53:00
10:53 PM,33.1,28.9,85,30.40,10.0,NE,3.5,-,N/A,,Clear,50,2013-01-07 04:53:00
11:53 PM,30.9,28.9,92,30.40,10.0,ENE,3.5,-,N/A,,Clear,60,2013-01-07 05:53:00